Flight Track Log - Related Links

Times and Time Zones

All times are in EDT time to prevent confusion due to time zone crossing. See the JIA2234 flight status page for this flight to view local times or setup timezone preferences in your user account.


Time Position Orientation Groundspeed Altitude Reporting Facility
EDT Latitude Longitude Course Direction KTS MPH feet Rate Location/Type
Sun 04:23:56 PM 35.1908 -80.9356 52° Northeast 155 178 1,500  Level Atlanta Center
Sun 04:24:51 PM 35.1472 -80.9400 185° South 195 224 2,800 1,691 Climbing Atlanta Center
Sun 04:25:46 PM 35.0978 -80.9722 208° Southwest 243 280 4,600 2,172 Climbing Atlanta Center
Sun 04:26:00 PM 35.1221 -81.2167 North  Level FlightAware Approximate
Sun 04:26:47 PM 35.0939 -81.0689 267° West 289 333 7,000  Level Atlanta Center
Sun 04:27:00 PM 35.2389 -81.2167 North  Level FlightAware Approximate
Sun 04:27:18 PM 35.1133 -81.0936 314° West 291 335 8,000  Level Atlanta Center
Sun 04:27:48 PM 35.1636 -81.1069 348° North 300 345 9,500 2,500 Climbing Atlanta Center
Sun 04:28:00 PM 35.3110 -81.1233 52° Northeast  Level FlightAware Approximate
Sun 04:28:18 PM 35.1928 -81.0958 17° North 298 343 10,500  Level Atlanta Center
Sun 04:29:00 PM 35.3829 -81.0103 52° Northeast  Level FlightAware Approximate
Sun 04:29:18 PM 35.2753 -81.0622 18° North 329 379 12,500  Level Atlanta Center
Sun 04:30:18 PM 35.3744 -81.0231 18° North 329 379 14,300 1,950 Climbing Atlanta Center
Sun 04:31:18 PM 35.4686 -81.0347 354° North 337 388 16,400 1,900 Climbing Atlanta Center
Sun 04:32:18 PM 35.5694 -81.0617 348° North 344 396 18,100 1,750 Climbing Atlanta Center
Sun 04:33:18 PM 35.6617 -81.0814 350° North 363 418 19,900 1,700 Climbing Atlanta Center
Sun 04:34:18 PM 35.7647 -81.1111 347° North 374 430 21,500 1,600 Climbing Atlanta Center
Sun 04:35:18 PM 35.8717 -81.1353 350° North 374 430 23,100 1,600 Climbing Atlanta Center
Sun 04:36:18 PM 35.9850 -81.1647 348° North 374 430 24,700 1,450 Climbing Atlanta Center
Sun 04:37:18 PM 36.0942 -81.1917 349° North 380 437 26,000 1,150 Climbing Atlanta Center
Sun 04:38:18 PM 36.2075 -81.2211 348° North 394 453 27,000 1,000 Climbing Atlanta Center
Sun 04:39:18 PM 36.3247 -81.2478 350° North 417 480 28,000 1,100 Climbing Atlanta Center
Sun 04:40:18 PM 36.4422 -81.2772 349° North 422 486 29,200 1,200 Climbing Atlanta Center
Sun 04:41:18 PM 36.5597 -81.3069 349° North 428 493 30,400 1,050 Climbing Atlanta Center
Sun 04:42:18 PM 36.6814 -81.3364 349° North 436 502 31,300 800 Climbing Atlanta Center
Sun 04:43:18 PM 36.7967 -81.3686 347° North 436 502 32,000 350 Climbing Atlanta Center
Sun 04:44:18 PM 36.9203 -81.4008 348° North 436 502 32,000  Level Atlanta Center
Sun 04:45:38 PM 37.0869 -81.4408 349° North 454 522 32,000  Level Indianapolis Center
Sun 04:46:40 PM 37.2136 -81.4739 348° North 462 532 32,000  Level Indianapolis Center
Sun 04:47:42 PM 37.3467 -81.5072 349° North 481 554 32,000  Level Indianapolis Center
Sun 04:48:44 PM 37.4794 -81.5431 348° North 488 562 32,000  Level Indianapolis Center
Sun 04:49:46 PM 37.6336 -81.5814 349° North 486 559 32,000  Level Indianapolis Center
Sun 04:50:48 PM 37.7656 -81.6167 348° North 485 558 32,000  Level Indianapolis Center
Sun 04:51:50 PM 37.8878 -81.6475 349° North 485 558 32,000  Level Indianapolis Center
Sun 04:52:52 PM 38.0203 -81.6822 348° North 482 555 32,000  Level Indianapolis Center
Sun 04:53:54 PM 38.1528 -81.7158 349° North 483 556 32,000  Level Indianapolis Center
Sun 04:54:56 PM 38.3111 -81.7592 348° North 483 556 32,000  Level Indianapolis Center
Sun 04:55:58 PM 38.4450 -81.7861 351° North 486 559 32,000  Level Indianapolis Center
Sun 04:57:00 PM 38.5814 -81.8086 353° North 486 559 32,000  Level Indianapolis Center
Sun 04:58:01 PM 38.7183 -81.8322 352° North 486 559 32,000  Level Indianapolis Center
Sun 04:59:03 PM 38.8533 -81.8536 353° North 484 557 32,000 -290 Level Indianapolis Center
Sun 05:00:05 PM 38.9892 -81.8775 352° North 485 558 31,400 -1,065 Descending Indianapolis Center
Sun 05:01:07 PM 39.1289 -81.9011 353° North 482 555 29,800 -1,452 Descending Indianapolis Center
Sun 05:02:09 PM 39.2556 -81.9194 354° North 479 551 28,400 -1,403 Descending Indianapolis Center
Sun 05:03:11 PM 39.3817 -81.9419 352° North 458 527 26,900 -1,645 Descending Indianapolis Center
Sun 05:04:13 PM 39.5292 -81.9675 352° North 444 511 25,000 -1,415 Descending Indianapolis Center
Sun 05:05:14 PM 39.6467 -81.9881 352° North 429 494 24,000 -976 Descending Indianapolis Center
Sun 05:06:16 PM 39.7642 -82.0069 353° North 411 473 23,000 -1,306 Descending Indianapolis Center
Sun 05:07:18 PM 39.8781 -82.0264 353° North 411 473 21,300 -1,452 Descending Indianapolis Center
Sun 05:08:20 PM 39.9881 -82.0444 353° North 398 458 20,000 -968 Descending Indianapolis Center
Sun 05:09:22 PM 40.0967 -82.0633 352° North 391 450 19,300 -1,113 Descending Indianapolis Center
Sun 05:10:24 PM 40.2033 -82.0831 352° North 385 443 17,700 -1,790 Descending Indianapolis Center
Sun 05:11:26 PM 40.3164 -82.1022 353° North 364 419 15,600 -1,317 Descending Indianapolis Center
Sun 05:12:27 PM 40.4158 -82.1178 353° North 358 412 15,000 -244 Descending Indianapolis Center
Sun 05:13:29 PM 40.5061 -82.0758 19° North 358 412 15,100 -339 Climbing Indianapolis Center
Sun 05:14:31 PM 40.5861 -82.0008 35° Northeast 351 404 14,300 -1,086 Descending Indianapolis Center
Sun 05:15:14 PM 40.6447 -81.9431 37° Northeast 340 391 13,200 -1,342 Descending Cleveland Center
Sun 05:15:47 PM 40.6828 -81.9028 39° Northeast 334 384 12,600 -1,161 Descending Cleveland Center
Sun 05:16:47 PM 40.7481 -81.8383 37° Northeast 326 375 11,400 -1,516 Descending Cleveland Center
Sun 05:17:22 PM 40.7944 -81.7953 35° Northeast 324 373 10,200 -884 Descending Cleveland Center
Sun 05:18:22 PM 40.8639 -81.7253 37° Northeast 319 367 10,000 -99 Descending Cleveland Center
Sun 05:19:23 PM 40.9356 -81.6550 37° Northeast 321 369 10,000  Level Cleveland Center
Sun 05:20:24 PM 41.0208 -81.6675 354° North 293 337 10,000 -595 Level Cleveland Center
Sun 05:21:24 PM 41.0956 -81.7100 337° Northwest 291 335 8,800 -1,388 Descending Cleveland Center
Sun 05:22:25 PM 41.1725 -81.7250 352° North 285 328 7,200 -1,033 Descending Cleveland Center
Sun 05:23:26 PM 41.2456 -81.7181 North 242 278 6,700 -1,041 Descending Cleveland Center
Sun 05:24:26 PM 41.3103 -81.7000 12° North 240 276 5,100 -1,289 Descending Cleveland Center
Sun 05:25:27 PM 41.3731 -81.6844 11° North 222 255 4,100 -1,033 Descending Cleveland Center
Sun 05:26:28 PM 41.4378 -81.6689 10° North 214 246 3,000 -1,082 Descending Cleveland Center

Login

Don't have an account? Register now (free) for customized features, flight alerts, and more!